Location: Poughquag
(41.6090°N, 73.6820°W)
Time: 07:50:24
(UTC-04:00)

ACS3 Solar Sail - Visible Passes

Search period start: 18 June 2024 00:00
Search period end: 28 June 2024 00:00
Orbit: 992 x 1024 km, 97.4° (Epoch: 17 June)

Date Brightness Start Highest point End Pass type
(mag) Time Alt. Az. Time Alt. Az. Time Alt. Az.
18 Jun 5.1 21:57:51 17° SE 22:02:30 54° ENE 22:08:33 10° N visible
18 Jun 6.5 23:43:12 14° SW 23:46:56 24° W 23:51:50 10° NW visible
19 Jun 4.9 22:32:38 22° S 22:36:52 83° W 22:43:07 10° NNW visible
20 Jun 7.1 00:19:49 10° WSW 00:21:51 12° W 00:23:53 10° WNW visible
20 Jun 5.9 21:22:12 10° SE 21:27:30 30° ENE 21:32:48 10° N visible
20 Jun 5.6 23:07:26 20° SSW 23:11:23 44° W 23:17:18 10° NNW visible
21 Jun 5.1 21:56:53 17° SE 22:01:39 56° ENE 22:07:43 10° N visible
21 Jun 6.5 23:42:14 13° SW 23:46:06 23° W 23:50:56 10° NW visible
22 Jun 4.9 22:31:41 21° S 22:36:00 80° W 22:42:15 10° NNW visible
23 Jun 7.2 00:19:21 10° W 00:21:02 11° W 00:22:42 10° WNW visible
23 Jun 5.8 21:21:17 10° SE 21:26:38 31° ENE 21:31:58 10° N visible
23 Jun 5.7 23:06:29 19° SSW 23:10:32 42° W 23:16:25 10° NNW visible
24 Jun 5.1 21:55:56 16° SSE 22:00:47 57° ENE 22:06:52 10° N visible
24 Jun 6.6 23:41:16 13° SW 23:45:16 22° W 23:50:00 10° NW visible
25 Jun 4.9 22:30:43 21° S 22:35:09 78° W 22:41:23 10° NNW visible
26 Jun 7.2 00:18:59 10° W 00:20:12 11° W 00:21:26 10° WNW visible
26 Jun 5.8 21:20:21 10° SE 21:25:45 32° ENE 21:31:08 10° N visible
26 Jun 5.8 23:05:31 18° SSW 23:09:41 41° W 23:15:32 10° NNW visible
27 Jun 5.0 21:54:58 16° SSE 21:59:55 59° ENE 22:06:01 10° N visible
27 Jun 6.6 23:40:19 12° SW 23:44:25 22° W 23:49:04 10° NW visible
